TimeMDT,TemperatureF,Dew PointF,Humidity,Sea Level PressureIn,VisibilityMPH,Wind Direction,Wind SpeedMPH,Gust SpeedMPH,PrecipitationIn,Events,Conditions,WindDirDegrees,DateUTC
12:53 AM,52.0,44.1,74,29.73,10.0,South,10.4,18.4,0.01,,Overcast,180,2013-05-16 06:53:00
1:53 AM,51.1,43.0,74,29.73,10.0,Calm,Calm,-,N/A,,Scattered Clouds,0,2013-05-16 07:53:00
2:53 AM,48.9,43.0,80,29.73,10.0,SSE,8.1,-,N/A,,Scattered Clouds,160,2013-05-16 08:53:00
3:53 AM,48.9,43.0,80,29.75,10.0,NW,9.2,-,N/A,,Mostly Cloudy,310,2013-05-16 09:53:00
4:53 AM,46.0,41.0,83,29.82,10.0,SW,6.9,-,N/A,,Clear,220,2013-05-16 10:53:00
5:53 AM,44.1,41.0,89,29.84,10.0,Calm,Calm,-,N/A,,Clear,0,2013-05-16 11:53:00
6:53 AM,46.9,43.0,86,29.85,10.0,Calm,Calm,-,N/A,,Mostly Cloudy,0,2013-05-16 12:53:00
7:53 AM,52.0,44.1,74,29.84,10.0,Variable,3.5,-,N/A,,Partly Cloudy,0,2013-05-16 13:53:00
8:53 AM,55.9,44.1,64,29.82,10.0,WSW,10.4,-,N/A,,Scattered Clouds,240,2013-05-16 14:53:00
9:53 AM,60.1,43.0,53,29.78,10.0,WSW,15.0,-,N/A,,Clear,240,2013-05-16 15:53:00
10:53 AM,64.0,41.0,43,29.74,10.0,WSW,17.3,24.2,N/A,,Clear,240,2013-05-16 16:53:00
11:53 AM,69.1,37.9,32,29.73,10.0,WSW,15.0,27.6,N/A,,Clear,250,2013-05-16 17:53:00
1:53 PM,72.0,30.0,21,29.67,10.0,WSW,27.6,38.0,N/A,,Mostly Cloudy,240,2013-05-16 19:53:00
2:13 PM,68.0,30.2,24,29.94,10.0,WSW,29.9,39.1,N/A,Thunderstorm,Partly Cloudy,250,2013-05-16 20:13:00
2:33 PM,64.4,30.2,28,29.96,10.0,West,26.5,38.0,N/A,,Mostly Cloudy,260,2013-05-16 20:33:00
2:53 PM,55.9,39.9,55,29.84,9.0,West,25.3,47.2,0.00,Rain,Light Rain,270,2013-05-16 20:53:00
4:53 PM,68.0,33.1,27,29.70,10.0,WSW,13.8,28.8,N/A,,Scattered Clouds,240,2013-05-16 22:53:00
5:22 PM,66.2,35.6,32,29.92,10.0,WNW,25.3,33.4,N/A,,Mostly Cloudy,300,2013-05-16 23:22:00
5:53 PM,64.9,33.1,31,29.71,10.0,NW,17.3,26.5,N/A,,Clear,310,2013-05-16 23:53:00
6:53 PM,64.0,33.1,31,29.72,10.0,WNW,12.7,-,N/A,,Partly Cloudy,300,2013-05-17 00:53:00
7:53 PM,60.1,37.9,44,29.75,10.0,SSW,19.6,27.6,N/A,,Overcast,200,2013-05-17 01:53:00
8:00 PM,59.0,37.4,45,29.95,10.0,South,16.1,26.5,N/A,,Overcast,180,2013-05-17 02:00:00
8:53 PM,55.9,39.0,53,29.75,10.0,SW,8.1,-,N/A,,Mostly Cloudy,220,2013-05-17 02:53:00
9:53 PM,54.0,37.9,55,29.74,10.0,NW,6.9,-,N/A,,Mostly Cloudy,320,2013-05-17 03:53:00
10:53 PM,52.0,39.9,63,29.74,10.0,Calm,Calm,-,N/A,,Mostly Cloudy,0,2013-05-17 04:53:00
11:53 PM,50.0,39.9,68,29.72,10.0,Calm,Calm,-,N/A,,Mostly Cloudy,0,2013-05-17 05:53:00